Location: Baili�vre
(50.0696°N, 4.2409°E)
Time: 03:38:51
(UTC+00:00)

Cosmos 1821 Rocket - Pass Details

Date: 08 August 2020
Orbit: 946 x 1004 km, 82.9° (Epoch: 25 September)

Event Time Altitude Azimuth Distance (km) Brightness Sun altitude
Rises 19:44:31 0° 168° (SSE) 3,613 6.6 -5.2°
Reaches altitude 10° 19:47:04 10° 163° (SSE) 2,678 5.9 -5.5°
Maximum altitude 19:52:54 48° 91° (E) 1,236 4.3 -6.3°
Drops below altitude 10° 19:58:51 10° 19° (NNE) 2,731 6.6 -7.1°
Sets 20:01:27 0° 14° (NNE) 3,692 7.3 -7.4°
